Regional Weather Roundup
Issued by NWS Midland/Odessa, TX

Skip options and go directly to product.
Home | Oldest Version | Previous Version | Current Version | All | Graphics & Text | Save Text | Print | Product List | Glossary On

Skip product version selection by date and time.   
912
ASUS44 KMAF 011010
RWRMAF
MIDLAND AREA WEATHER ROUNDUP
NATIONAL WEATHER SERVICE MIDLAND TX
500 AM CDT WED APR 01 2015

...IN SOUTHWEST TEXAS AND SOUTHEAST NEW MEXICO...

CITY           SKY/WX    TMP DP  RH WIND       PRES   REMARKS
ALPINE         PTCLDY    56  43  61 SW7       30.05F
ANDREWS        FAIR      59  48  67 SW9       29.91S
ARTESIA        CLEAR     63  43  48 W20G28    29.85F
BIG SPRING     CLOUDY    65  56  73 S12       29.93R
CARLSBAD       CLEAR     56  44  64 SE7       29.85F
DRYDEN           N/A     67  53  61 CALM      29.91F
FORT STOCKTON  CLOUDY    62  48  60 S15       29.92F
GUAD PASS      CLEAR     52  41  66 SW20      30.00F
HOBBS          MOCLDY    57  41  54 S10       29.91R
MARFA          CLEAR     45  43  93 NW6       30.04F
MIDLAND AIRPK  CLOUDY    65  56  72 S12       29.91S
MIDLAND INTL   CLOUDY    63  56  78 S12       29.91S
ODESSA         CLOUDY    63  57  81 S16       29.91S
PECOS          MOCLDY    57  44  62 S7        29.89F
PRESIDIO       FAIR      57  51  79 N9        29.96F
SEMINOLE       PTCLDY    52  42  69 S5        29.91S
SNYDER         CLOUDY    65  51  60 S8        29.90S
WINK           PTCLDY    56  45  66 SE8       29.88F
$$
...OTHER STATIONS IN TEXAS...

CITY           SKY/WX    TMP DP  RH WIND       PRES   REMARKS
ABILENE        CLOUDY    66  60  81 SW9       29.89S
AMARILLO       CLEAR     54  40  59 S12       29.85F
AUSTIN         CLOUDY    69  65  86 S9        29.92S
BROWNSVILLE    CLOUDY    73  70  90 S17G23    29.90F
CORPUS CHRISTI MOCLDY    70  68  93 S10       29.90F
DALLAS FTW     MOCLDY    67  62  84 SE7       29.88F
DEL RIO        CLOUDY    65  62  90 N3        29.91F FOG
EL PASO        PTCLDY    61  42  49 SW14      29.96F
HOUSTON INT    CLOUDY    70  66  87 S7        29.96S
LUBBOCK        CLOUDY    57  43  59 SW7       29.86F
SAN ANGELO     LGT RAIN  67  63  87 SW17G26   29.92R
SAN ANTONIO    MOCLDY    68  66  93 S8        29.93S
WACO           CLOUDY    67  64  90 S10       29.89F
WICHITA FALLS  NOT AVBL
$$
...OTHER LOCATIONS IN NEW MEXICO...

CITY           SKY/WX    TMP DP  RH WIND       PRES   REMARKS
ALAMAGORDO     CLEAR     55  39  54 S10       29.96S
ALBUQUERQUE    CLEAR     50  25  37 SE12      29.99S
CANNON AFB     CLEAR     53  40  62 W9        29.87F
CLOVIS         CLEAR     48  37  66 W5        29.87F
HOLLOMAN AFB   CLEAR     57  41  54 S12       29.94F
ROSWELL        CLEAR     50  40  68 SE5       29.87F
RUIDOSO        CLEAR     48  34  57 SW10      30.06F
SANTA FE       CLEAR     45  20  36 SE3       29.99F
TRUTH OR CONSE CLEAR     53  40  61 CALM      29.98F
TUCUMCARI      CLEAR     47  35  63 SW8       29.83F
$$

USA.gov is the U.S. government's official web portal to all federal, state and local government web resources and services.